Location: Arboyeti
(42.1122°N, 44.6017°E)
Time: 16:48:26
(UTC+00:00)

Cosmos 2227 Rocket - Pass Details

Date: 19 April 2021
Orbit: 840 x 844 km, 71.0° (Epoch: 07 May)

Event Time Altitude Azimuth Distance (km) Brightness Sun altitude
Exits shadow 19:40:18 - 255° (WSW) 2,641 4.8 -33.3°
Reaches altitude 10° 19:40:56 10° 259° (W) 2,462 4.7 -33.4°
Maximum altitude 19:45:13 22° 309° (NW) 1,773 4.3 -33.7°
Drops below altitude 10° 19:49:33 10° 359° (N) 2,470 5.3 -34.0°
Sets 19:52:35 0° 15° (NNE) 3,408 6.1 -34.2°
